Tracking 20623 objects as of 4-Apr-2020
HD Live streaming from Space Station
objects crossing your sky now

COSMOS 970 DEB

Track COSMOS 970 DEB now!
10-day predictions


NORAD ID: 10883
Int'l Code: 1977-121AE
Perigee: 909.7 km
Apogee: 1,078.2 km
Inclination: 65.8 °
Period: 104.8 minutes
Semi major axis: 7364 km
RCS: 0.0133 m2 (small)
Launch date: December 21, 1977
Source: Commonwealth of Independent States (former USSR) (CIS)
Launch site: TYURATAM MISSILE AND SPACE COMPLEX (TTMTR)

Note: This is SATELLITE DEBRIS
aabbcc
Your satellite tracking list
Your tracking list is empty




NASA's NSSDC Master Catalog

Two Line Element Set (TLE):
1 10883U 77121AE  20095.04879771  .00000103  00000-0  18759-3 0  9994
2 10883  65.8428  59.4878 0114402 137.2260 347.3332 13.73560522111371
Source of the keplerian elements: AFSPC